Location: Unspecified
(0.0000°N, 0.0000°E)
Time: 17:54:07
(UTC+00:00)

Hubble Space Telescope - Pass Details

Date: 06 November 2025
Orbit: 482 x 485 km, 28.5° (Epoch: 06 November)

Event Time Altitude Azimuth Distance (km) Brightness Sun altitude
Rises 19:51:02 0° 290° (WNW) 2,521 4.9 -30.4°
Reaches altitude 10° 19:53:17 10° 283° (WNW) 1,644 3.9 -31.0°
Enters shadow 19:54:11 16° 277° (W) 1,314 3.4 -31.2°
